Tracking 29091 objects as of 17-Jul-2024
HD Live streaming from Space Station
objects crossing your sky now

ATLAS 5 CENTAUR DEB

Track ATLAS 5 CENTAUR DEB now!


NORAD ID: 44981
Int'l Code: 2018-079BM
Perigee: 4,959.9 km
Apogee: 30,188.7 km
Inclination: 12.2 °
Period: 614.6 minutes
Semi major axis: 23945 km
RCS: Unknown
Launch date: October 17, 2018
Source: United States (US)
Launch site: AIR FORCE EASTERN TEST RANGE (AFETR)

Note: This is SATELLITE DEBRIS
Your satellite tracking list
Your tracking list is empty




NASA's NSSDC Master Catalog

Two Line Element Set (TLE):
1 44981U 18079BQ  24199.17690586 -.00000117  00000-0  00000-0 0  9998
2 44981  12.1846 299.5510 5268011 174.8751 194.1706  2.34300558   229
Source of the keplerian elements: AFSPC